Location: Crescent
(42.8242°N, 73.7329°W)
Time: 03:56:51
(UTC+00:00)

Tiros 1 - Pass Details

Date: 19 February 2026
Orbit: 618 x 649 km, 48.4° (Epoch: 7 March)

Event Time Altitude Azimuth Distance (km) Brightness Sun altitude
Rises 16:57:37 0° 292° (WNW) 2,900 10.3 36.0°
Reaches altitude 10° 17:00:00 10° 298° (WNW) 1,989 9.5 36.0°
Maximum altitude 17:04:28 51° 15° (NNE) 776 7.6 36.1°
Drops below altitude 10° 17:08:54 10° 92° (E) 1,978 9.8 36.1°
Sets 17:11:15 0° 97° (E) 2,882 10.6 36.1°
